Leakey, Texas, United States (78873)
Lat: 29.73N, Lon: 99.76W
Wx Zone: TXZ185
Local Info
Past Weather Observations for Sunday, September 25, 2016

NOTE: This archive is for the closest National Weather Service station to Leakey. Information may differ from the station used for current weather conditions.

Click here for Long-term Archive

Time Weather Temperature Dewpoint Humidity Pressure Winds Precip Visibility
23:55
Overcast
Heavy Rain
68°F / 20°C 66°F / 19°C 94% 30.15 in
(1021 mb)
NE 4.6 mph
(NE 7 kph)
0.10 in
(2.54 mm)
2 1/2SM
23:35
Overcast
Heavy Rain
68°F / 20°C 66°F / 19°C 94% 30.15 in
(1021 mb)
NE 6.9 mph
(NE 11 kph)
0.01 in
(0.25 mm)
1 1/2SM
23:15
Overcast
Fog And Mist
68°F / 20°C 66°F / 19°C 94% 30.15 in
(1021 mb)
NE 6.9 mph
(NE 11 kph)
- 5SM
22:55
Overcast
Fog And Mist
68°F / 20°C 66°F / 19°C 94% 30.12 in
(1020 mb)
NE 9.2 mph
(NE 15 kph)
- 4SM
22:35
Overcast
68°F / 20°C 66°F / 19°C 94% 30.15 in
(1021 mb)
NE 4.6 mph
(NE 7 kph)
- 8SM
22:15
Overcast
68°F / 20°C 66°F / 19°C 94% 30.12 in
(1020 mb)
NE 8.1 mph
(NE 13 kph)
- 10SM
21:55
Overcast
68°F / 20°C 66°F / 19°C 94% 30.12 in
(1020 mb)
ENE 9.2 mph
(ENE 15 kph)
- 10SM
21:35
Overcast
68°F / 20°C 66°F / 19°C 94% 30.12 in
(1020 mb)
NE 6.9 mph
(NE 11 kph)
- 10SM
21:15
Overcast
68°F / 20°C 66°F / 19°C 94% 30.12 in
(1020 mb)
NE 12.7 mph
(NE 20 kph)
- 10SM
20:55
Overcast
68°F / 20°C 66°F / 19°C 94% 30.12 in
(1020 mb)
NE 8.1 mph
(NE 13 kph)
- 10SM
20:35
Overcast
68°F / 20°C 66°F / 19°C 94% 30.12 in
(1020 mb)
NE 8.1 mph
(NE 13 kph)
- 10SM
20:15
Overcast
68°F / 20°C 66°F / 19°C 94% 30.09 in
(1019 mb)
NE 9.2 mph
(NE 15 kph)
- 10SM
19:55
Overcast
68°F / 20°C 66°F / 19°C 94% 30.09 in
(1019 mb)
NE 10.4 mph
(NE 17 kph)
- 10SM
19:35
Overcast
68°F / 20°C 66°F / 19°C 94% 30.09 in
(1019 mb)
NE 11.5 mph
(NE 19 kph)
- 10SM
19:15
Overcast
68°F / 20°C 66°F / 19°C 94% 30.09 in
(1019 mb)
NE 10.4 mph
(NE 17 kph)
- 10SM
18:55
Overcast
68°F / 20°C 66°F / 19°C 94% 30.06 in
(1018 mb)
NE 9.2 mph
(NE 15 kph)
- 10SM
18:35
Overcast
68°F / 20°C 66°F / 19°C 94% 30.06 in
(1018 mb)
NE 12.7 mph
(NE 20 kph)
- 10SM
18:15
Overcast
68°F / 20°C 66°F / 19°C 94% 30.04 in
(1017 mb)
NE 13.8 mph
(NE 22 kph)
- 10SM
17:55
Overcast
68°F / 20°C 66°F / 19°C 94% 30.04 in
(1017 mb)
NNE 11.5 mph
(NNE 19 kph)
- 10SM
17:35
Overcast
68°F / 20°C 66°F / 19°C 94% 30.04 in
(1017 mb)
NE 6.9 mph
(NE 11 kph)
- 10SM
17:15
Mostly Cloudy
68°F / 20°C 66°F / 19°C 94% 30.04 in
(1017 mb)
NNE 8.1 mph
(NNE 13 kph)
- 10SM
16:55
Partly Cloudy
70°F / 21°C 66°F / 19°C 88% 30.04 in
(1017 mb)
NE 10.4 mph
(NE 17 kph)
- 10SM
16:35
Overcast
68°F / 20°C 66°F / 19°C 94% 30.06 in
(1018 mb)
NE 8.1 mph
(NE 13 kph)
- 10SM
16:15
Overcast
68°F / 20°C 66°F / 19°C 94% 30.06 in
(1018 mb)
NE 5.8 mph
(NE 9 kph)
- 10SM
15:55
Mostly Cloudy
Light Rain
68°F / 20°C 66°F / 19°C 94% 30.06 in
(1018 mb)
N 4.6 mph
(N 7 kph)
0.01 in
(0.25 mm)
10SM
15:35
Mostly Cloudy
Light Rain
66°F / 19°C 66°F / 19°C 100% 30.04 in
(1017 mb)
NE 5.8 mph
(NE 9 kph)
0.01 in
(0.25 mm)
6SM
15:15
Mostly Cloudy
Light Rain
66°F / 19°C 64°F / 18°C 94% 30.04 in
(1017 mb)
ENE 10.4 mph
(ENE 17 kph)
0.01 in
(0.25 mm)
9SM
14:55
Overcast
Light Rain
66°F / 19°C 64°F / 18°C 94% 30.06 in
(1018 mb)
ENE 5.8 mph
(ENE 9 kph)
0.13 in
(3.30 mm)
5SM
14:35
Overcast
Heavy Rain
64°F / 18°C 64°F / 18°C 100% 30.06 in
(1018 mb)
E 6.9 mph
(E 11 kph)
0.11 in
(2.79 mm)
4SM
14:15
Overcast
Heavy Rain
64°F / 18°C 64°F / 18°C 100% 30.06 in
(1018 mb)
NE 4.6 mph
(NE 7 kph)
0.05 in
(1.27 mm)
3SM
13:55
Overcast
Heavy Rain
64°F / 18°C 64°F / 18°C 100% 30.09 in
(1019 mb)
NE 3.5 mph
(NE 6 kph)
0.16 in
(4.06 mm)
3SM
13:35
Overcast
Heavy Rain
64°F / 18°C 64°F / 18°C 100% 30.09 in
(1019 mb)
NE 10.4 mph
(NE 17 kph)
0.11 in
(2.79 mm)
3SM
13:15
Overcast
Heavy Rain
64°F / 18°C 64°F / 18°C 100% 30.09 in
(1019 mb)
NE 6.9 mph
(NE 11 kph)
0.04 in
(1.02 mm)
2 1/2SM
12:55
Overcast
Heavy Rain
64°F / 18°C 64°F / 18°C 100% 30.06 in
(1018 mb)
NE 12.7 mph
(NE 20 kph)
0.14 in
(3.56 mm)
2 1/2SM
12:35
Overcast
Heavy Rain
64°F / 18°C 64°F / 18°C 100% 30.06 in
(1018 mb)
NNE 13.8 mph
(NNE 22 kph)
0.08 in
(2.03 mm)
4SM
12:15
Overcast
Heavy Rain
64°F / 18°C 64°F / 18°C 100% 30.06 in
(1018 mb)
NNE 9.2 mph
(NNE 15 kph)
0.03 in
(0.76 mm)
3SM
11:55
Overcast
Heavy Rain
64°F / 18°C 63°F / 17°C 94% 30.09 in
(1019 mb)
NE 9.2 mph
(NE 15 kph)
0.17 in
(4.32 mm)
3SM
11:35
Overcast
Heavy Rain
64°F / 18°C 63°F / 17°C 94% 30.09 in
(1019 mb)
NE 13.8 mph
(NE 22 kph)
0.10 in
(2.54 mm)
2 1/2SM
11:15
Overcast
Heavy Rain
64°F / 18°C 64°F / 18°C 100% 30.06 in
(1018 mb)
NNE 17.3 mph
(NNE 28 kph)
0.02 in
(0.51 mm)
3SM
10:55
Overcast
Heavy Rain
64°F / 18°C 64°F / 18°C 100% 30.06 in
(1018 mb)
NE 17.3 mph
(NE 28 kph)
1.71 in
(43.43 mm)
10:35
Overcast
Heavy Rain
64°F / 18°C 64°F / 18°C 100% 30.09 in
(1019 mb)
N 24.2 mph
(N 39 kph)
1.18 in
(29.97 mm)
10:15
Overcast
Heavy Rain
64°F / 18°C 64°F / 18°C 100% 30.09 in
(1019 mb)
NW 18.4 mph
(NW 30 kph)
0.39 in
(9.91 mm)
09:55
Overcast
Heavy Rain
64°F / 18°C 64°F / 18°C 100% 30.09 in
(1019 mb)
NW 19.6 mph
(NW 32 kph)
1.79 in
(45.47 mm)
09:35
Overcast
Heavy Rain
66°F / 19°C 64°F / 18°C 94% 30.06 in
(1018 mb)
NW 16.1 mph
(NW 26 kph)
1.14 in
(28.96 mm)
1/2SM
09:15
Overcast
Heavy Rain
66°F / 19°C 64°F / 18°C 94% 30.04 in
(1017 mb)
N 12.7 mph
(N 20 kph)
0.70 in
(17.78 mm)
M1/4SM
08:55
Overcast
Heavy Rain
66°F / 19°C 64°F / 18°C 94% 30.01 in
(1016 mb)
NE 17.3 mph
(NE 28 kph)
1.02 in
(25.91 mm)
1/4SM
08:35
Overcast
Heavy Rain
66°F / 19°C 64°F / 18°C 94% 30.01 in
(1016 mb)
NNE 11.5 mph
(NNE 19 kph)
0.39 in
(9.91 mm)
3/4SM
08:15
Overcast
Heavy Rain
66°F / 19°C 64°F / 18°C 94% 30.04 in
(1017 mb)
NE 13.8 mph
(NE 22 kph)
0.09 in
(2.29 mm)
1 1/4SM
07:55
Overcast
Heavy Rain
66°F / 19°C 64°F / 18°C 94% 30.04 in
(1017 mb)
NE 12.7 mph
(NE 20 kph)
0.54 in
(13.72 mm)
1 1/2SM
07:35
Overcast
Heavy Rain
66°F / 19°C 64°F / 18°C 94% 30.04 in
(1017 mb)
NE 11.5 mph
(NE 19 kph)
0.40 in
(10.16 mm)
1SM
07:15
Overcast
Heavy Rain
66°F / 19°C 64°F / 18°C 94% 30.04 in
(1017 mb)
NNE 11.5 mph
(NNE 19 kph)
0.22 in
(5.59 mm)
1 1/2SM
06:55
Overcast
Heavy Rain
66°F / 19°C 66°F / 19°C 100% 30.04 in
(1017 mb)
N 9.2 mph
(N 15 kph)
0.50 in
(12.70 mm)
1SM
06:35
Overcast
Rain
66°F / 19°C 66°F / 19°C 100% 30.04 in
(1017 mb)
NNE 11.5 mph
(NNE 19 kph)
0.02 in
(0.51 mm)
10SM
06:15
Overcast
66°F / 19°C 66°F / 19°C 100% 30.04 in
(1017 mb)
NE 10.4 mph
(NE 17 kph)
- 10SM
05:55
Overcast
66°F / 19°C 66°F / 19°C 100% 30.04 in
(1017 mb)
NNE 10.4 mph
(NNE 17 kph)
0.01 in
(0.25 mm)
10SM
05:35
Overcast
Light Rain
66°F / 19°C 66°F / 19°C 100% 30.04 in
(1017 mb)
NE 9.2 mph
(NE 15 kph)
0.01 in
(0.25 mm)
10SM
05:15
Overcast
66°F / 19°C 66°F / 19°C 100% 30.01 in
(1016 mb)
NE 8.1 mph
(NE 13 kph)
- 10SM
04:55
Overcast
Light Rain
66°F / 19°C 66°F / 19°C 100% 30.01 in
(1016 mb)
NE 6.9 mph
(NE 11 kph)
- 9SM
04:35
Overcast
66°F / 19°C 66°F / 19°C 100% 30.01 in
(1016 mb)
N 4.6 mph
(N 7 kph)
- 10SM
04:15
Overcast
Light Rain
66°F / 19°C 66°F / 19°C 100% 30.01 in
(1016 mb)
NE 4.6 mph
(NE 7 kph)
- 10SM
03:55
Overcast
66°F / 19°C 66°F / 19°C 100% 30.01 in
(1016 mb)
NE 5.8 mph
(NE 9 kph)
- 10SM
03:35
Mostly Cloudy
66°F / 19°C 66°F / 19°C 100% 30.01 in
(1016 mb)
NE 4.6 mph
(NE 7 kph)
- 10SM
03:15
Mostly Cloudy
66°F / 19°C 66°F / 19°C 100% 30.01 in
(1016 mb)
Calm - 10SM
02:55
Overcast
Light Rain
66°F / 19°C 66°F / 19°C 100% 30.01 in
(1016 mb)
Calm 0.01 in
(0.25 mm)
8SM
02:35
Partly Cloudy
66°F / 19°C 66°F / 19°C 100% 30.01 in
(1016 mb)
Calm - 10SM
02:15
Clear
66°F / 19°C 64°F / 18°C 94% 30.01 in
(1016 mb)
Calm - 10SM
01:55
Mostly Cloudy
66°F / 19°C 64°F / 18°C 94% 30.01 in
(1016 mb)
SSW 4.6 mph
(SSW 7 kph)
0.20 in
(5.08 mm)
10SM
01:35
Overcast
Heavy Rain
66°F / 19°C 64°F / 18°C 94% 30.04 in
(1017 mb)
SSW 10.4 mph
(SSW 17 kph)
0.18 in
(4.57 mm)
2SM
01:15
Mostly Cloudy
Rain
70°F / 21°C 66°F / 19°C 88% 30.06 in
(1018 mb)
SSW 15 mph
(SSW 24 kph)
0.06 in
(1.52 mm)
3SM
00:55
Overcast
Light Rain
70°F / 21°C 68°F / 20°C 94% 30.04 in
(1017 mb)
SE 4.6 mph
(SE 7 kph)
0.01 in
(0.25 mm)
8SM
00:35
Mostly Cloudy
Light Rain
68°F / 20°C 66°F / 19°C 94% 30.04 in
(1017 mb)
SSE 5.8 mph
(SSE 9 kph)
- 9SM
00:15
Partly Cloudy
68°F / 20°C 66°F / 19°C 94% 30.01 in
(1016 mb)
Calm - 10SM
Time Weather Temperature Dewpoint Humidity Pressure Winds Precip Visibility


Weather for websites

WeatherForYou.com, LLC is not responsible for any damages or problems caused by this service. Current weather conditions are obtained from the closest station including government and personal stations which may have varying degrees of accuracy. Weather forecasts are derived from the NOAA NDFD. Like all things, this site belongs to Jesus Christ... He just trusts us to maintain it. If you have any questions or comments email webmaster@weatherforyou.com

Copyright © 2016, WeatherForYou.com LLC. All rights reserved.